Time,TemperatureF,DewpointF,PressureIn,WindDirection,WindDirectionDegrees,WindSpeedMPH,WindSpeedGustMPH,Humidity,HourlyPrecipIn,Conditions,Clouds,dailyrainin,SoftwareType,DateUTC
2013-07-31 00:13:00,86.7,62.1,29.93,SSW,202,1.7,-999.0,44,-99.99,,,0.00,Acu-Link.com,2013-07-31 07:13:00,
2013-07-31 00:28:00,86.5,62.0,29.94,South,180,0.0,-999.0,44,-99.99,,,0.00,Acu-Link.com,2013-07-31 07:28:00,
2013-07-31 00:43:00,86.5,62.6,29.94,SSW,202,1.7,-999.0,45,-99.99,,,0.00,Acu-Link.com,2013-07-31 07:43:00,
2013-07-31 00:58:00,85.1,62.0,29.94,ESE,112,1.7,-999.0,46,-99.99,,,0.00,Acu-Link.com,2013-07-31 07:58:00,
2013-07-31 01:14:00,84.7,62.2,29.94,South,180,2.7,-999.0,47,-99.99,,,0.00,Acu-Link.com,2013-07-31 08:14:00,
2013-07-31 01:29:00,84.2,62.4,29.93,SSW,202,0.0,-999.0,48,-99.99,,,0.00,Acu-Link.com,2013-07-31 08:29:00,
2013-07-31 01:44:00,83.8,62.6,29.95,SW,225,1.7,-999.0,49,-99.99,,,0.00,Acu-Link.com,2013-07-31 08:44:00,
2013-07-31 01:59:00,83.7,62.5,29.93,South,180,0.0,-999.0,49,-99.99,,,0.00,Acu-Link.com,2013-07-31 08:59:00,
2013-07-31 02:14:00,82.6,62.0,29.94,SSE,157,2.2,-999.0,50,-99.99,,,0.00,Acu-Link.com,2013-07-31 09:14:00,
2013-07-31 02:30:00,82.8,62.2,29.94,SSE,157,1.7,-999.0,50,-99.99,,,0.00,Acu-Link.com,2013-07-31 09:30:00,
2013-07-31 02:45:00,83.1,62.5,29.95,South,180,2.2,-999.0,50,-99.99,,,0.00,Acu-Link.com,2013-07-31 09:45:00,
2013-07-31 03:00:00,83.1,62.5,29.95,WSW,247,2.7,-999.0,50,-99.99,,,0.00,Acu-Link.com,2013-07-31 10:00:00,
2013-07-31 03:15:00,82.9,62.3,29.95,South,180,2.7,-999.0,50,-99.99,,,0.00,Acu-Link.com,2013-07-31 10:15:00,
2013-07-31 03:31:00,82.6,62.6,29.95,South,180,1.7,-999.0,51,-99.99,,,0.00,Acu-Link.com,2013-07-31 10:31:00,
2013-07-31 03:46:00,82.2,62.8,29.95,ESE,112,0.0,-999.0,52,-99.99,,,0.00,Acu-Link.com,2013-07-31 10:46:00,
2013-07-31 04:01:00,82.4,63.0,29.96,ESE,112,2.2,-999.0,52,-99.99,,,0.00,Acu-Link.com,2013-07-31 11:01:00,
2013-07-31 04:31:00,81.7,62.9,29.97,SSE,157,0.0,-999.0,53,-99.99,,,0.00,Acu-Link.com,2013-07-31 11:31:00,
2013-07-31 04:47:00,81.5,62.7,29.97,South,180,0.0,-999.0,53,-99.99,,,0.00,Acu-Link.com,2013-07-31 11:47:00,
2013-07-31 05:02:00,81.5,62.7,29.98,South,180,0.0,-999.0,53,-99.99,,,0.00,Acu-Link.com,2013-07-31 12:02:00,
2013-07-31 05:32:00,81.3,62.5,30.00,SSW,202,0.0,-999.0,53,-99.99,,,0.00,Acu-Link.com,2013-07-31 12:32:00,
2013-07-31 05:47:00,81.0,62.8,29.99,ESE,112,0.0,-999.0,54,-99.99,,,0.00,Acu-Link.com,2013-07-31 12:47:00,
2013-07-31 06:03:00,82.2,62.8,29.99,ESE,112,2.2,-999.0,52,-99.99,,,0.00,Acu-Link.com,2013-07-31 13:03:00,
2013-07-31 06:18:00,81.5,63.2,29.99,ENE,67,1.7,-999.0,54,-99.99,,,0.00,Acu-Link.com,2013-07-31 13:18:00,
2013-07-31 06:33:00,81.5,63.2,30.00,ESE,112,0.0,-999.0,54,-99.99,,,0.00,Acu-Link.com,2013-07-31 13:33:00,
2013-07-31 06:48:00,81.7,63.9,29.99,East,90,0.0,-999.0,55,-99.99,,,0.00,Acu-Link.com,2013-07-31 13:48:00,
2013-07-31 07:03:00,82.2,64.4,30.00,NNE,22,0.0,-999.0,55,-99.99,,,0.00,Acu-Link.com,2013-07-31 14:03:00,
2013-07-31 07:19:00,83.1,65.2,30.00,SE,135,1.7,-999.0,55,-99.99,,,0.00,Acu-Link.com,2013-07-31 14:19:00,
2013-07-31 07:34:00,85.3,65.1,29.99,South,180,0.0,-999.0,51,-99.99,,,0.00,Acu-Link.com,2013-07-31 14:34:00,
2013-07-31 07:49:00,87.8,65.6,30.00,ESE,112,0.0,-999.0,48,-99.99,,,0.00,Acu-Link.com,2013-07-31 14:49:00,
2013-07-31 08:04:00,87.3,65.2,29.99,NE,45,1.7,-999.0,48,-99.99,,,0.00,Acu-Link.com,2013-07-31 15:04:00,
2013-07-31 08:20:00,89.4,65.2,30.00,NNE,22,0.0,-999.0,45,-99.99,,,0.00,Acu-Link.com,2013-07-31 15:20:00,
2013-07-31 08:35:00,89.4,63.9,29.99,West,270,2.7,-999.0,43,-99.99,,,0.00,Acu-Link.com,2013-07-31 15:35:00,
2013-07-31 08:50:00,92.8,64.9,30.01,WSW,247,2.7,-999.0,40,-99.99,,,0.00,Acu-Link.com,2013-07-31 15:50:00,
2013-07-31 09:05:00,94.5,64.9,30.01,ESE,112,0.0,-999.0,38,-99.99,,,0.00,Acu-Link.com,2013-07-31 16:05:00,
2013-07-31 09:20:00,98.8,63.7,30.00,NW,315,2.2,-999.0,32,-99.99,,,0.00,Acu-Link.com,2013-07-31 16:20:00,
2013-07-31 09:36:00,96.6,62.7,29.99,NW,315,3.2,-999.0,33,-99.99,,,0.00,Acu-Link.com,2013-07-31 16:36:00,
2013-07-31 09:51:00,99.3,62.3,29.98,West,270,4.2,-999.0,30,-99.99,,,0.00,Acu-Link.com,2013-07-31 16:51:00,
2013-07-31 10:36:00,99.5,60.6,29.99,West,270,2.2,-999.0,28,-99.99,,,0.00,Acu-Link.com,2013-07-31 17:36:00,
2013-07-31 10:52:00,100.9,58.6,29.99,WNW,292,3.7,-999.0,25,-99.99,,,0.00,Acu-Link.com,2013-07-31 17:52:00,
2013-07-31 11:07:00,100.2,58.0,29.97,West,270,2.7,-999.0,25,-99.99,,,0.00,Acu-Link.com,2013-07-31 18:07:00,
2013-07-31 11:22:00,101.5,59.1,29.96,South,180,0.0,-999.0,25,-99.99,,,0.00,Acu-Link.com,2013-07-31 18:22:00,
2013-07-31 11:37:00,103.3,59.4,29.96,WNW,292,6.8,-999.0,24,-99.99,,,0.00,Acu-Link.com,2013-07-31 18:37:00,
2013-07-31 11:52:00,104.2,57.7,29.96,NW,315,3.7,-999.0,22,-99.99,,,0.00,Acu-Link.com,2013-07-31 18:52:00,
2013-07-31 12:08:00,104.0,56.3,29.93,WNW,292,6.8,-999.0,21,-99.99,,,0.00,Acu-Link.com,2013-07-31 19:08:00,
2013-07-31 12:23:00,105.8,56.4,29.94,WNW,292,3.7,-999.0,20,-99.99,,,0.00,Acu-Link.com,2013-07-31 19:23:00,
2013-07-31 12:38:00,107.1,-12.9,29.95,West,270,4.2,-999.0,1,-99.99,,,0.00,Acu-Link.com,2013-07-31 19:38:00,
2013-07-31 12:53:00,105.8,42.7,29.92,West,270,4.2,-999.0,12,-99.99,,,0.00,Acu-Link.com,2013-07-31 19:53:00,
2013-07-31 13:09:00,104.5,49.3,29.91,South,180,3.2,-999.0,16,-99.99,,,0.00,Acu-Link.com,2013-07-31 20:09:00,
2013-07-31 13:24:00,102.9,55.4,29.91,West,270,11.4,-999.0,21,-99.99,,,0.00,Acu-Link.com,2013-07-31 20:24:00,
2013-07-31 13:39:00,101.7,56.9,29.92,West,270,4.7,-999.0,23,-99.99,,,0.00,Acu-Link.com,2013-07-31 20:39:00,
2013-07-31 13:54:00,100.6,57.2,29.90,SW,225,3.7,-999.0,24,-99.99,,,0.00,Acu-Link.com,2013-07-31 20:54:00,
2013-07-31 14:09:00,100.0,57.8,29.90,WNW,292,8.9,-999.0,25,-99.99,,,0.00,Acu-Link.com,2013-07-31 21:09:00,
2013-07-31 14:25:00,96.8,58.3,29.91,South,180,10.4,-999.0,28,-99.99,,,0.00,Acu-Link.com,2013-07-31 21:25:00,
2013-07-31 14:40:00,98.2,57.4,29.90,South,180,2.2,-999.0,26,-99.99,,,0.00,Acu-Link.com,2013-07-31 21:40:00,
2013-07-31 14:55:00,94.6,62.7,29.90,NE,45,3.7,-999.0,35,-99.99,,,0.00,Acu-Link.com,2013-07-31 21:55:00,
2013-07-31 15:10:00,91.4,64.3,29.90,SSE,157,3.2,-999.0,41,-99.99,,,0.00,Acu-Link.com,2013-07-31 22:10:00,
2013-07-31 15:25:00,91.9,64.8,29.89,South,180,5.3,-999.0,41,-99.99,,,0.00,Acu-Link.com,2013-07-31 22:25:00,
2013-07-31 15:41:00,92.3,66.5,29.89,SSE,157,6.3,-999.0,43,-99.99,,,0.00,Acu-Link.com,2013-07-31 22:41:00,
2013-07-31 15:56:00,93.2,65.2,29.88,ESE,112,5.8,-999.0,40,-99.99,,,0.00,Acu-Link.com,2013-07-31 22:56:00,
2013-07-31 16:15:00,95.9,63.8,29.87,East,90,6.3,-999.0,35,-99.99,,,0.00,Acu-Link.com,2013-07-31 23:15:00,
2013-07-31 16:31:00,97.0,63.1,29.87,South,180,2.7,-999.0,33,-99.99,,,0.00,Acu-Link.com,2013-07-31 23:31:00,
2013-07-31 16:46:00,97.3,62.4,29.86,SSE,157,2.7,-999.0,32,-99.99,,,0.00,Acu-Link.com,2013-07-31 23:46:00,
2013-07-31 17:01:00,98.2,60.4,29.85,ESE,112,2.7,-999.0,29,-99.99,,,0.00,Acu-Link.com,2013-08-01 00:01:00,
2013-07-31 17:16:00,95.9,62.1,29.85,South,180,4.2,-999.0,33,-99.99,,,0.00,Acu-Link.com,2013-08-01 00:16:00,
2013-07-31 17:32:00,95.4,61.7,29.85,South,180,3.7,-999.0,33,-99.99,,,0.00,Acu-Link.com,2013-08-01 00:32:00,
2013-07-31 17:47:00,96.6,62.7,29.86,South,180,3.7,-999.0,33,-99.99,,,0.00,Acu-Link.com,2013-08-01 00:47:00,
2013-07-31 18:02:00,96.8,62.0,29.86,South,180,3.2,-999.0,32,-99.99,,,0.00,Acu-Link.com,2013-08-01 01:02:00,
2013-07-31 18:17:00,94.6,62.7,29.87,South,180,4.7,-999.0,35,-99.99,,,0.00,Acu-Link.com,2013-08-01 01:17:00,
2013-07-31 18:32:00,93.0,63.6,29.86,SSE,157,4.2,-999.0,38,-99.99,,,0.00,Acu-Link.com,2013-08-01 01:32:00,
2013-07-31 18:48:00,91.8,65.4,29.87,South,180,8.9,-999.0,42,-99.99,,,0.00,Acu-Link.com,2013-08-01 01:48:00,
2013-07-31 19:42:00,90.3,64.7,29.86,ESE,112,3.7,-999.0,43,-99.99,,,0.00,Acu-Link.com,2013-08-01 02:42:00,
2013-07-31 19:57:00,90.0,64.5,29.86,SSE,157,4.2,-999.0,43,-99.99,,,0.00,Acu-Link.com,2013-08-01 02:57:00,
2013-07-31 20:12:00,89.4,63.9,29.87,SSE,157,3.2,-999.0,43,-99.99,,,0.00,Acu-Link.com,2013-08-01 03:12:00,
2013-07-31 20:27:00,89.4,63.9,29.87,SSE,157,2.7,-999.0,43,-99.99,,,0.00,Acu-Link.com,2013-08-01 03:27:00,
2013-07-31 20:42:00,89.4,63.9,29.88,SSE,157,5.8,-999.0,43,-99.99,,,0.00,Acu-Link.com,2013-08-01 03:42:00,
2013-07-31 20:58:00,89.4,62.6,29.88,South,180,4.2,-999.0,41,-99.99,,,0.00,Acu-Link.com,2013-08-01 03:58:00,
2013-07-31 21:13:00,89.4,62.6,29.88,East,90,5.8,-999.0,41,-99.99,,,0.00,Acu-Link.com,2013-08-01 04:13:00,
2013-07-31 21:28:00,89.4,62.6,29.89,East,90,4.2,-999.0,41,-99.99,,,0.00,Acu-Link.com,2013-08-01 04:28:00,
2013-07-31 21:43:00,89.4,62.6,29.89,SSE,157,5.3,-999.0,41,-99.99,,,0.00,Acu-Link.com,2013-08-01 04:43:00,
2013-07-31 21:58:00,89.4,61.9,29.90,SSE,157,5.8,-999.0,40,-99.99,,,0.00,Acu-Link.com,2013-08-01 04:58:00,
2013-07-31 22:14:00,89.4,60.4,29.89,South,180,5.3,-999.0,38,-99.99,,,0.00,Acu-Link.com,2013-08-01 05:14:00,
2013-07-31 22:29:00,90.9,59.4,29.90,SE,135,5.3,-999.0,35,-99.99,,,0.00,Acu-Link.com,2013-08-01 05:29:00,
2013-07-31 22:44:00,90.3,59.7,29.90,SE,135,5.3,-999.0,36,-99.99,,,0.00,Acu-Link.com,2013-08-01 05:44:00,
2013-07-31 22:59:00,90.0,59.4,29.90,ESE,112,3.7,-999.0,36,-99.99,,,0.00,Acu-Link.com,2013-08-01 05:59:00,
2013-07-31 23:15:00,89.1,60.1,29.90,South,180,4.7,-999.0,38,-99.99,,,0.00,Acu-Link.com,2013-08-01 06:15:00,
2013-07-31 23:30:00,88.5,60.3,29.90,South,180,0.0,-999.0,39,-99.99,,,0.00,Acu-Link.com,2013-08-01 06:30:00,
2013-07-31 23:45:00,87.6,61.0,29.91,East,90,0.0,-999.0,41,-99.99,,,0.00,Acu-Link.com,2013-08-01 06:45:00,